{"data":{"norad_id":62525,"epoch":"2026-05-25T01:19:04.155744Z","epoch_age_seconds":70049,"freshness":"FRESH","line1":"1 62525U 25004Q   26145.05490921  .00022353  00000+0  81890-3 0  9992","line2":"2 62525  42.9976 148.9523 0000576 320.9860  39.0950 15.27597886 78130","mean_motion":15.27597886,"eccentricity":5.76e-5,"inclination_deg":42.9976,"raan_deg":148.9523,"arg_perigee_deg":320.986,"mean_anomaly_deg":39.095,"bstar":0.0008189,"rev_number":7813,"period_min":94.26564498401,"perigee_km":482.60033820949,"apogee_km":483.39074067804,"semimajor_km":6861.1325394438,"source":"CELESTRAK","updated_at":"2026-05-25T13:38:19.704748Z"}}